Detroit, MI

10:29 PM EST on February 05, 2016 (GMT -0500)
Detroit City

Weather History for KDET - January, 2013

Change the Weather History Date:

Monday, January 21, 2013

  Actual Average Record
Temperature  
Mean Temperature 13 °F -  
Max Temperature 19 °F 31 °F 53 °F (1974)
Min Temperature 6 °F 20 °F -12 °F (1985)
Degree Days  
Heating Degree Days 52    
Moisture  
Dew Point 5 °F    
Average Humidity 65    
Maximum Humidity 81    
Minimum Humidity 45    
Precipitation  
Precipitation 0.00 in - - ()
Sea Level Pressure  
Sea Level Pressure 30.09 in    
Wind  
Wind Speed 9 mph (WNW)    
Max Wind Speed 18 mph    
Max Gust Speed 28 mph    
Visibility 8 miles    
Events Fog , Snow    
Averages and records for this station are not official NWS values.
T = Trace of Precipitation, MM = Missing Value Source: NWS Daily Summary

Daily Weather History Graph

Daily Weather History Graph

Search for Another Location

Airport or City:

Trip Planner

Search our weather history database for the weather conditions in past years. The results will help you decide how hot, cold, wet, or windy it might be!

Date:

Astronomy

Jan. 21, 2013 Rise Set
Actual Time 7:55 AM EST 5:32 PM EST
Civil Twilight 7:24 AM EST 6:02 PM EST
Nautical Twilight 6:50 AM EST 6:37 PM EST
Astronomical Twilight 6:16 AM EST 7:10 PM EST
Moon 1:10 PM EST (1/21) 3:22 AM EST (1/21)
Length of Visible Light 10h 38m
Length of Day
9h 37m
Waxing Gibbous, 75% of the Moon is Illuminated
Jan 21
Waxing Gibbous
Jan 26
Full
Feb 3
Last Quarter
Feb 10
New
Feb 17
First Quarter

Hourly Weather History & Observations

Time (EST) Temp. Windchill Dew Point Humidity Pressure Visibility Wind Dir Wind Speed Gust Speed Precip Events Conditions
12:53 AM 17.1 °F 5.8 °F 3.9 °F 56% 30.87 in 10.0 mi WNW 9.2 mph - N/A   Overcast
1:53 AM 16.0 °F 6.3 °F 3.0 °F 57% 30.85 in 10.0 mi WNW 6.9 mph - N/A   Overcast
2:53 AM 16.0 °F 7.4 °F 1.9 °F 54% 30.13 in 10.0 mi WNW 5.8 mph - N/A   Overcast
3:53 AM 16.0 °F - 3.0 °F 57% 30.11 in 10.0 mi Calm Calm - N/A   Overcast
4:53 AM 16.0 °F - 5.0 °F 62% 30.08 in 10.0 mi Calm Calm - N/A   Overcast
5:53 AM 16.0 °F - 5.0 °F 62% 30.06 in 10.0 mi Calm Calm - N/A   Overcast
6:53 AM 18.0 °F 7.7 °F 8.1 °F 65% 30.04 in 10.0 mi WSW 8.1 mph - N/A   Overcast
7:53 AM 19.0 °F 5.0 °F 10.9 °F 71% 30.74 in 8.0 mi SW 15.0 mph 19.6 mph 0.00 in Snow Light Snow
8:53 AM 19.0 °F 6.8 °F 10.9 °F 71% 30.01 in 10.0 mi West 11.5 mph - 0.00 in   Overcast
9:03 AM 19.4 °F 7.2 °F 10.4 °F 68% 29.98 in 10.0 mi West 11.5 mph - N/A   Overcast
9:36 AM 19.4 °F 7.2 °F 12.2 °F 74% 29.97 in 1.8 mi WSW 11.5 mph 19.6 mph 0.00 in Snow Light Snow
9:47 AM 19.4 °F 8.6 °F 14.0 °F 80% 29.97 in 3.0 mi West 9.2 mph - 0.00 in Snow Light Snow
9:53 AM 18.0 °F 6.1 °F 12.9 °F 81% 30.01 in 1.0 mi NW 10.4 mph - 0.00 in Snow Light Snow
9:56 AM 17.6 °F 5.7 °F 12.2 °F 79% 29.98 in 0.5 mi WNW 10.4 mph - 0.00 in Fog , Snow Snow
10:04 AM 17.6 °F 6.4 °F 12.2 °F 79% 29.98 in 0.2 mi WNW 9.2 mph - 0.00 in Fog , Snow Snow
10:11 AM 17.6 °F 7.3 °F 12.2 °F 79% 29.98 in 0.8 mi WNW 8.1 mph - 0.00 in Snow Light Snow
10:19 AM 17.6 °F 9.3 °F 12.2 °F 79% 29.98 in 1.2 mi Variable 5.8 mph - 0.00 in Snow Light Snow
10:25 AM 17.6 °F 7.3 °F 10.4 °F 73% 29.98 in 3.0 mi WNW 8.1 mph - 0.00 in Snow Light Snow
10:32 AM 17.6 °F 5.7 °F 10.4 °F 73% 29.98 in 8.0 mi WNW 10.4 mph - 0.00 in   Overcast
10:53 AM 17.1 °F 5.0 °F 9.0 °F 71% 30.01 in 10.0 mi WNW 10.4 mph - 0.00 in   Scattered Clouds
11:25 AM 17.6 °F 7.3 °F 8.6 °F 68% 29.97 in 10.0 mi NW 8.1 mph - N/A   Mostly Cloudy
11:53 AM 18.0 °F 6.9 °F 10.0 °F 71% 29.99 in 10.0 mi WNW 9.2 mph - N/A   Overcast
12:04 PM 17.6 °F 6.4 °F 8.6 °F 68% 29.95 in 10.0 mi WNW 9.2 mph - N/A   Overcast
12:53 PM 17.1 °F 3.6 °F 3.9 °F 56% 29.97 in 10.0 mi WNW 12.7 mph 19.6 mph 0.00 in   Overcast
1:53 PM 17.1 °F 2.5 °F 3.0 °F 54% 29.97 in 10.0 mi WNW 15.0 mph 23.0 mph N/A   Overcast
2:53 PM 16.0 °F 0.1 °F 3.9 °F 59% 29.98 in 10.0 mi NW 17.3 mph 24.2 mph 0.00 in   Overcast
3:53 PM 16.0 °F 0.6 °F 1.0 °F 52% 30.01 in 10.0 mi WNW 16.1 mph 27.6 mph 0.00 in   Mostly Cloudy
4:53 PM 14.0 °F -3.0 °F -4.0 °F 45% 30.04 in 10.0 mi West 18.4 mph 26.5 mph N/A   Partly Cloudy
5:53 PM 12.0 °F -3.4 °F 3.0 °F 67% 30.05 in 9.0 mi WNW 13.8 mph 18.4 mph N/A   Mostly Cloudy
6:04 PM 12.2 °F -3.1 °F 3.2 °F 67% 30.01 in 5.0 mi WNW 13.8 mph 23.0 mph 0.00 in Snow Light Snow
6:13 PM 12.2 °F -2.5 °F 1.4 °F 62% 30.01 in 9.0 mi West 12.7 mph 25.3 mph 0.00 in   Overcast
6:53 PM 10.9 °F -4.7 °F 1.9 °F 67% 30.06 in 8.0 mi WNW 13.8 mph 21.9 mph 0.00 in Snow Light Snow
7:53 PM 10.0 °F -7.1 °F -2.0 °F 58% 30.08 in 10.0 mi West 16.1 mph 20.7 mph 0.00 in   Partly Cloudy
8:53 PM 9.0 °F -5.9 °F -4.0 °F 56% 30.09 in 10.0 mi West 11.5 mph 19.6 mph N/A   Clear
9:53 PM 8.1 °F -10.7 °F -8.0 °F 48% 30.11 in 10.0 mi West 18.4 mph 25.3 mph N/A   Partly Cloudy
10:53 PM 7.0 °F -7.5 °F -8.0 °F 51% 30.08 in 10.0 mi WNW 10.4 mph 21.9 mph N/A   Clear
11:53 PM 6.1 °F -7.8 °F -7.1 °F 55% 30.09 in 10.0 mi West 9.2 mph 17.3 mph N/A   Clear